Change the Weather History Date:

Monday, May 26, 2014

  Actual Average (KMAI) Record (KMAI)
Temperature  
Mean Temperature 82 °F 78 °F  
Max Temperature 95 °F 88 °F 99 °F (2012)
Min Temperature 69 °F 67 °F 55 °F (2005)
Degree Days  
Heating Degree Days 0    
Month to date heating degree days  
Since 1 July heating degree days  
Cooling Degree Days 17    
Month to date cooling degree days  
Year to date cooling degree days  
Growing Degree Days 32 (Base 50)    
Moisture  
Dew Point 68 °F    
Average Humidity 69    
Maximum Humidity 88    
Minimum Humidity 41    
Precipitation  
Precipitation 0.00 in 0.13 in 0.80 in (1999)
Month to date precipitation 2.30  
Year to date precipitation 21.53  
Sea Level Pressure  
Sea Level Pressure 30.15 in    
Wind  
Wind Speed 6 mph (SE)    
Max Wind Speed 12 mph    
Max Gust Speed 21 mph    
Visibility 10 miles    
Events Thunderstorm    
T = Trace of Precipitation, MM = Missing Value Source: NWS Daily Summary

Daily Weather History Graph

Daily Weather History Graph

Search for Another Location

Airport or City:

Trip Planner

Search our weather history database for the weather conditions in past years. The results will help you decide how hot, cold, wet, or windy it might be!

Date:

Astronomy

May. 26, 2014 Rise Set
Actual Time 6:37 AM EDT 8:33 PM EDT
Civil Twilight 6:10 AM EDT 9:01 PM EDT
Nautical Twilight 5:37 AM EDT 9:33 PM EDT
Astronomical Twilight 5:02 AM EDT 10:08 PM EDT
Moon 5:09 AM EDT (5/26) 6:43 PM EDT (5/26)
Length of Visible Light 14h 50m
Length of Day
13h 56m
Waning Crescent, 5% of the Moon is Illuminated
May 26
Waning Crescent
May 28
New
Jun 5
First Quarter
Jun 13
Full
Jun 19
Last Quarter

Hourly Weather History & Observations

Time (EDT) Temp. Heat Index Dew Point Humidity Pressure Visibility Wind Dir Wind Speed Gust Speed Precip Events Conditions
12:15 AM 75.2 °F - 64.4 °F 69% 30.15 in 10.0 mi SE 11.5 mph - N/A   Clear
12:35 AM 73.4 °F - 66.2 °F 78% 30.15 in 10.0 mi SE 10.4 mph - N/A   Clear
12:55 AM 73.4 °F - 66.2 °F 78% 30.15 in 10.0 mi SSE 9.2 mph - N/A   Clear
1:15 AM 73.4 °F - 66.2 °F 78% 30.15 in 10.0 mi SE 8.1 mph - N/A   Clear
1:35 AM 73.4 °F - 68.0 °F 83% 30.14 in 10.0 mi ESE 4.6 mph - N/A   Clear
1:55 AM 73.4 °F - 68.0 °F 83% 30.14 in 10.0 mi ESE 4.6 mph - N/A   Clear
2:15 AM 73.4 °F - 68.0 °F 83% 30.14 in 10.0 mi SE 6.9 mph - N/A   Clear
2:35 AM 73.4 °F - 68.0 °F 83% 30.13 in 10.0 mi SE 4.6 mph - N/A   Clear
2:55 AM 73.4 °F - 68.0 °F 83% 30.13 in 10.0 mi East 3.5 mph - N/A   Clear
3:15 AM 73.4 °F - 68.0 °F 83% 30.12 in 10.0 mi Calm Calm - N/A   Clear
3:35 AM 73.4 °F - 69.8 °F 88% 30.11 in 10.0 mi Calm Calm - N/A   Clear
3:55 AM 73.4 °F - 68.0 °F 83% 30.12 in 10.0 mi Calm Calm - N/A   Clear
4:15 AM 73.4 °F - 68.0 °F 83% 30.12 in 10.0 mi Calm Calm - N/A   Clear
4:35 AM 71.6 °F - 68.0 °F 88% 30.14 in 10.0 mi NE 6.9 mph - N/A   Clear
4:55 AM 71.6 °F - 68.0 °F 88% 30.14 in 10.0 mi East 6.9 mph - N/A   Clear
5:15 AM 71.6 °F - 68.0 °F 88% 30.15 in 10.0 mi ESE 3.5 mph - N/A   Clear
5:35 AM 71.6 °F - 66.2 °F 83% 30.15 in 10.0 mi ESE 6.9 mph - N/A   Clear
5:55 AM 71.6 °F - 68.0 °F 88% 30.16 in 10.0 mi ESE 4.6 mph - N/A   Clear
6:15 AM 69.8 °F - 66.2 °F 88% 30.17 in 10.0 mi SE 5.8 mph - N/A   Clear
6:35 AM 69.8 °F - 66.2 °F 88% 30.18 in 10.0 mi SE 5.8 mph - N/A   Clear
6:55 AM 69.8 °F - 66.2 °F 88% 30.18 in 10.0 mi ESE 3.5 mph - N/A   Clear
7:15 AM 71.6 °F - 68.0 °F 88% 30.19 in 10.0 mi East 4.6 mph - N/A   Clear
7:35 AM 71.6 °F - 68.0 °F 88% 30.19 in 10.0 mi Calm Calm - N/A   Clear
7:55 AM 73.4 °F - 68.0 °F 83% 30.20 in 10.0 mi SE 4.6 mph - N/A   Clear
8:15 AM 73.4 °F - 68.0 °F 83% 30.20 in 10.0 mi SE 3.5 mph - N/A   Clear
8:35 AM 73.4 °F - 66.2 °F 78% 30.20 in 10.0 mi SE 4.6 mph - N/A   Clear
8:55 AM 77.0 °F - 68.0 °F 74% 30.20 in 10.0 mi SE 4.6 mph - N/A   Clear
9:15 AM 78.8 °F - 68.0 °F 69% 30.20 in 10.0 mi ESE 4.6 mph - N/A   Clear
9:35 AM 78.8 °F - 66.2 °F 65% 30.20 in 10.0 mi ESE 4.6 mph - N/A   Clear
9:55 AM 80.6 °F 83.2 °F 68.0 °F 65% 30.20 in 10.0 mi Calm Calm - N/A   Clear
10:15 AM 82.4 °F 85.4 °F 68.0 °F 62% 30.21 in 10.0 mi ESE 5.8 mph - N/A   Clear
10:35 AM 84.2 °F 88.4 °F 69.8 °F 62% 30.20 in 10.0 mi ESE 5.8 mph - N/A   Clear
11:15 AM 86.0 °F 90.4 °F 69.8 °F 58% 30.20 in 10.0 mi SE 5.8 mph - N/A   Clear
11:55 AM 89.6 °F 91.1 °F 64.4 °F 43% 30.20 in 10.0 mi SSE 9.2 mph - N/A   Clear
12:15 PM 89.6 °F 91.1 °F 64.4 °F 43% 30.20 in 10.0 mi SSE 8.1 mph - N/A   Clear
12:35 PM 91.4 °F 95.4 °F 68.0 °F 46% 30.20 in 10.0 mi SSW 4.6 mph - N/A   Clear
12:55 PM 91.4 °F 95.4 °F 68.0 °F 46% 30.20 in 10.0 mi SSE 4.6 mph - N/A   Clear
1:15 PM 91.4 °F 93.2 °F 64.4 °F 41% 30.19 in 10.0 mi South 6.9 mph - N/A   Clear
1:35 PM 91.4 °F 95.4 °F 68.0 °F 46% 30.18 in 10.0 mi WSW 3.5 mph - N/A   Clear
2:15 PM 95.0 °F 99.5 °F 68.0 °F 41% 30.17 in 10.0 mi SSW 5.8 mph - N/A   Clear
2:35 PM 95.0 °F 99.5 °F 68.0 °F 41% 30.15 in 10.0 mi ESE 5.8 mph - N/A   Clear
2:55 PM 95.0 °F 99.5 °F 68.0 °F 41% 30.15 in 10.0 mi South 3.5 mph - N/A   Clear
3:15 PM 95.0 °F 99.5 °F 68.0 °F 41% 30.14 in 10.0 mi East 3.5 mph - N/A   Scattered Clouds
3:35 PM 95.0 °F 99.5 °F 68.0 °F 41% 30.12 in 10.0 mi SSE 4.6 mph - N/A   Scattered Clouds
3:55 PM 95.0 °F 99.5 °F 68.0 °F 41% 30.11 in 10.0 mi SSE 4.6 mph - N/A   Scattered Clouds
4:15 PM 95.0 °F 101.3 °F 69.8 °F 44% 30.10 in 10.0 mi SSE 9.2 mph - N/A   Clear
4:35 PM 95.0 °F 99.5 °F 68.0 °F 41% 30.10 in 10.0 mi SSE 5.8 mph - N/A   Clear
4:55 PM 95.0 °F 99.5 °F 68.0 °F 41% 30.09 in 10.0 mi South 5.8 mph - N/A   Scattered Clouds
5:15 PM 95.0 °F 101.3 °F 69.8 °F 44% 30.09 in 10.0 mi SSE 6.9 mph - N/A   Scattered Clouds
5:35 PM 95.0 °F 103.2 °F 71.6 °F 47% 30.09 in 10.0 mi South 6.9 mph - N/A   Scattered Clouds
5:55 PM 86.0 °F 90.4 °F 69.8 °F 58% 30.10 in 10.0 mi SW 11.5 mph 20.7 mph N/A Thunderstorm Scattered Clouds
6:15 PM 84.2 °F 87.3 °F 68.0 °F 58% 30.10 in 10.0 mi WSW 10.4 mph - N/A   Scattered Clouds
6:35 PM 84.2 °F 87.3 °F 68.0 °F 58% 30.11 in 10.0 mi WSW 5.8 mph - N/A   Clear
6:55 PM 80.6 °F 83.9 °F 69.8 °F 70% 30.11 in 10.0 mi WSW 11.5 mph 16.1 mph N/A   Clear
7:15 PM 80.6 °F 83.9 °F 69.8 °F 70% 30.11 in 10.0 mi West 9.2 mph - N/A   Clear
7:35 PM 80.6 °F 83.9 °F 69.8 °F 70% 30.12 in 10.0 mi West 6.9 mph - N/A Thunderstorm Thunderstorm
7:55 PM 80.6 °F 83.9 °F 69.8 °F 70% 30.14 in 10.0 mi Calm Calm - N/A   Clear
8:15 PM 80.6 °F 83.9 °F 69.8 °F 70% 30.14 in 10.0 mi NE 6.9 mph - N/A   Clear
8:35 PM 80.6 °F 84.6 °F 71.6 °F 74% 30.14 in 10.0 mi East 3.5 mph - N/A   Clear
8:55 PM 80.6 °F 84.6 °F 71.6 °F 74% 30.14 in 10.0 mi Calm Calm - N/A   Clear
9:15 PM 80.6 °F 84.6 °F 71.6 °F 74% 30.15 in 10.0 mi ESE 3.5 mph - N/A   Clear
9:35 PM 78.8 °F - 69.8 °F 74% 30.15 in 10.0 mi SE 3.5 mph - N/A   Clear
9:55 PM 78.8 °F - 71.6 °F 78% 30.16 in 10.0 mi ESE 5.8 mph - N/A   Clear
10:15 PM 78.8 °F - 71.6 °F 78% 30.16 in 10.0 mi ESE 6.9 mph - N/A   Scattered Clouds
10:35 PM 78.8 °F - 71.6 °F 78% 30.17 in 10.0 mi SE 5.8 mph - N/A   Scattered Clouds
10:55 PM 78.8 °F - 73.4 °F 83% 30.18 in 10.0 mi SE 3.5 mph - N/A   Scattered Clouds
11:15 PM 78.8 °F - 73.4 °F 83% 30.18 in 10.0 mi Calm Calm - N/A   Clear
11:35 PM 77.0 °F - 71.6 °F 83% 30.18 in 10.0 mi Calm Calm - N/A   Clear
11:55 PM 77.0 °F - 71.6 °F 83% 30.17 in 10.0 mi Calm Calm - N/A   Clear